Meath Environmental Platform

Observations for Trim Market St

Time AQI Temp °C Hum % Pres Pa CO μg/m³ H₂S μg/m³ NO μg/m³ NO₂ μg/m³ O₃ μg/m³ SO₂ μg/m³ PM1 μg/m³ PM2.5 μg/m³ PM10 μg/m³
Wednesday 26 August 2026
08:20 2 16.9 84 2,147,483,647 0.22 0 1.49 14.93 37.99 0 4.99 6.58 10.24
08:18 2 16.9 84 2,147,483,647 0.24 0 1.56 15.36 43.65 0 4.28 5.65 10.79
08:17 2 16.9 84 2,147,483,647 0.23 0 1.54 13.8 42.01 0 4.99 6.58 10.25
08:16 2 16.9 84 2,147,483,647 0.3 0 1.47 14.22 39.42 0 4.28 6.12 10.25
08:15 2 16.9 84 2,147,483,647 0.24 0 1.41 14.61 43.49 0 4.99 5.65 9.16
08:14 2 16.9 84 2,147,483,647 0.26 0 1.22 19.95 38.38 0 4.99 7.05 10.79
08:12 2 16.9 84 2,147,483,647 0.23 0 0.86 20.53 35.71 0 6.41 6.58 11.88
08:09 2 17 84 2,147,483,647 0.22 0 1.4 13.67 41.33 0 4.99 6.59 10.79
08:08 2 17 84 2,147,483,647 0.21 0 1.53 14.21 39.52 0 4.99 5.19 9.16
08:07 2 17 84 2,147,483,647 0.22 0 1.42 14.21 36.11 0 4.99 5.19 8.62
08:00 2 17 84 2,147,483,647 0.23 0 1.22 14.46 40.82 0 5.7 7.06 12.42
07:54 2 17.1 84 2,147,483,647 0.23 0 1.28 14.33 41.37 0 4.99 7.05 11.33
07:53 2 17.1 84 2,147,483,647 0.24 0 1.27 13.55 42.8 0 5.7 6.12 9.7
07:52 2 17.1 84 2,147,483,647 0.24 0 1.25 14.83 38.21 0 4.99 6.12 10.25
07:51 2 17.1 84 2,147,483,647 0.25 0 1.31 14.21 40.52 0 3.56 4.72 8.62
07:50 2 17.1 84 2,147,483,647 0.23 0 1.49 14.33 37.67 0 5.7 7.52 12.96
07:49 2 17.1 84 2,147,483,647 0.23 0 1.53 13.1 38.75 0 4.99 5.19 8.62
07:48 2 17.1 84 2,147,483,647 0.23 0 1.58 20.77 40.09 0 4.99 5.19 10.25
07:47 2 17.1 84 2,147,483,647 0.24 0 1.66 16.67 41.79 0 4.99 6.11 11.33
07:46 2 17.1 84 2,147,483,647 0.25 0 1.74 13.86 38.82 0 4.28 4.7 7.53